Wetbulb
56.90 55.55 56.47 55.93 56.04 54.61 53.31 54.31 51.55 53.10 53.18 60.30 62.59 63.50 65.25 68.08 69.64 69.26 69.51 69.81 71.39 71.27 72.46 73.75 73.85 75.00 75.10 76.01 77.35 77.52 75.93 76.42 75.92 76.56 76.97 75.76 74.45 74.91 75.38 75.26 75.65 75.85 75.86 76.38
54.79 55.54 56.59 54.39 55.42 55.54 55.44 54.96 54.91 54.57 56.97 63.76 64.19 65.49 66.45 68.22 68.30 68.96 69.20 69.39 70.71 71.13 71.36 71.40 71.72 71.72 72.63 73.46 74.16 75.35 74.37 74.16 75.76 76.05 76.01 76.19 76.62 76.26 76.66 76.54 75.78 76.00 75.66 75.66
52.43 55.53 54.40 51.04 55.74 56.28 56.63 56.58 55.19 52.68 61.92 64.77 63.77 64.25 66.93 67.86 68.16 68.45 69.09 69.52 70.20 70.17 70.56 71.27 71.10 72.59 71.77 73.09 74.42 74.29 74.08 74.41 74.79 74.87 74.57 75.17 75.34 75.36 75.20 74.86 76.08 75.38 75.09 74.67
51.84 53.53 46.68 56.22 59.74 58.56 58.25 57.95 58.57 57.52 60.66 63.09 65.13 66.09 67.88 69.09 69.08 68.77 68.52 69.34 70.32 70.48 70.36 70.77 70.69 70.86 72.93 72.91 73.60 74.44 74.18 73.96 74.33 74.67 73.57 73.66 74.09 73.72 73.31 74.01 74.23 74.28 73.83 74.18
50.00 46.39 49.71 55.86 57.19 55.71 56.81 55.86 58.53 57.90 62.79 63.82 65.06 65.79 66.87 69.01 70.50 69.77 69.89 70.07 70.06 70.08 69.47 72.06 70.77 72.94 73.05 72.71 74.14 73.46 72.91 73.85 74.71 74.69 73.75 73.02 72.41 72.99 73.80 73.29 72.82 72.62 72.92 74.01
51.62 47.43 44.20 53.86 59.56 60.39 59.86 52.29 61.16 62.00 62.95 63.62 63.89 59.40 62.95 68.50 68.45 69.22 69.67 69.71 68.86 68.29 68.52 68.99 69.98 69.45 70.19 71.52 72.55 72.86 73.83 73.69 73.82 74.53 73.55 72.52 72.10 72.05 72.57 72.77 71.36 71.47 70.81 72.00
53.90 51.62 53.24 59.15 60.44 61.32 52.23 57.32 63.87 63.36 63.66 64.11 63.51 66.80 68.47 68.29 69.11 69.67 69.40 69.16 69.53 69.20 68.46 70.22 71.46 71.30 69.86 69.48 68.86 71.89 71.98 72.54 73.07 73.11 72.82 72.37 71.68 71.90 71.78 71.46 71.61 71.38 71.21 71.48
54.86 52.34 50.05 62.48 62.00 57.18 63.40 65.43 65.84 64.60 65.19 66.40 67.83 67.85 68.87 68.95 68.79 68.82 68.69 67.47 67.20 67.53 68.70 68.94 70.20 70.73 69.63 70.46 71.96 72.03 71.53 70.88 71.27 71.74 70.95 69.49 70.74 71.29 71.41 70.93 69.67 69.23 69.14 69.27
55.96 56.42 63.91 63.35 62.93 66.10 65.84 65.55 66.23 67.40 67.52 67.39 67.20 67.04 66.60 64.63 67.23 66.54 66.27 66.58 66.76 68.40 68.93 70.08 71.06 70.26 69.28 71.44 71.98 71.07 70.34 69.33 68.94 69.34 68.94 68.89 68.50 67.86 67.54 68.35 68.04 67.58 67.26 67.44
57.88 59.16 61.46 63.00 64.36 65.08 65.19 64.58 67.09 67.58 67.12 67.20 66.55 66.04 65.13 65.30 65.94 65.66 66.08 66.00 66.53 67.24 67.45 68.06 70.20 70.38 70.96 70.70 68.99 70.16 68.92 68.35 67.92 67.26 66.56 66.71 66.21 65.73 65.17 65.10 65.08 64.71 64.91 65.48
57.50 59.80 60.40 61.49 62.70 62.76 64.63 65.64 65.45 65.88 65.38 64.40 64.20 63.99 64.03 64.45 65.72 65.27 66.49 66.46 66.82 67.26 66.92 67.18 68.94 69.49 68.78 69.23 69.54 68.11 67.44 66.82 66.41 65.94 65.73 65.95 66.14 64.87 65.01 66.40 64.88 65.05 64.76 64.96
54.15 60.40 60.91 62.31 63.16 64.17 63.43 63.53 63.79 63.82 63.53 63.52 63.43 62.89 63.42 63.56 65.68 67.03 66.63 67.31 67.05 67.52 66.97 67.73 67.61 67.60 68.43 69.46 69.03 67.75 66.24 64.95 64.38 63.93 64.31 64.45 63.98 64.46 60.07 54.08 52.13 50.22 49.44 55.52
59.39 60.98 61.24 62.11 62.38 62.40 63.49 63.76 63.34 63.53 63.30 62.52 63.32 62.99 63.33 63.24 65.26 63.86 66.20 66.40 67.14 67.22 66.77 67.59 67.10 66.78 68.06 67.68 66.88 65.81 65.07 64.59 63.61 62.08 62.90 62.11 62.36 62.49 61.96 62.55 56.19 50.58 49.01 48.02
61.99 61.60 59.76 60.55 59.63 61.54 62.64 63.79 63.60 63.65 63.33 62.83 62.63 64.32 64.31 64.01 64.40 65.17 65.49 65.86 65.99 65.52 65.04 65.26 64.59 63.54 64.54 63.47 64.02 62.60 62.28 57.05 61.76 62.21 61.62 61.56 62.98 62.03 62.15 61.98 62.29 63.00 59.38 53.74
60.60 61.43 61.39 63.17 62.62 62.69 63.33 63.16 62.48 61.74 62.30 63.34 63.91 63.98 64.22 63.64 63.33 64.25 64.80 64.47 63.75 63.04 62.35 61.02 60.01 60.04 61.68 61.40 62.09 61.61 61.75 62.40 61.97 59.43 60.01 60.32 61.80 62.00 60.63 61.23 62.20 62.45 64.04 60.42
61.02 61.63 61.71 61.18 62.40 62.23 62.69 61.93 61.60 62.60 63.60 63.62 63.77 63.37 62.78 62.28 61.97 62.00 61.74 60.75 58.63 57.47 58.11 58.72 59.08 59.30 60.03 58.86 58.03 58.79 57.54 58.28 58.19 58.63 59.01 59.49 60.53 60.86 60.64 60.45 59.37 60.25 62.03 63.25
59.29 59.67 60.86 60.14 61.00 62.20 62.07 63.35 63.58 63.17 62.96 62.20 61.55 61.37 61.04 60.40 59.54 58.48 57.40 57.24 57.23 57.03 56.59 56.95 55.71 56.25 55.73 56.18 55.98 56.23 56.78 57.43 57.31 57.49 59.35 59.01 59.24 59.38 59.65 59.75 59.25 59.23 60.63 61.61
62.16 62.45 63.67 62.64 62.71 62.11 62.84 63.09 62.64 61.83 60.70 60.66 59.93 59.53 58.72 57.05 55.79 56.00 55.19 55.78 55.53 54.85 55.75 55.94 55.90 54.71 54.75 55.40 54.71 54.36 54.30 54.52 54.94 55.77 56.23 56.17 57.94 57.91 58.47 58.90 58.35 58.49 59.16 60.74
61.97 63.44 63.62 63.24 63.40 62.83 60.81 60.72 60.63 60.51 59.58 59.20 58.69 57.64 57.41 56.60 55.37 54.42 54.03 53.00 52.80 52.62 52.76 53.56 53.99 53.22 52.90 53.80 53.59 52.63 52.22 51.83 52.00 52.64 53.77 53.95 55.56 57.62 57.51 56.89 57.22 57.61 57.84 58.77
63.32 63.08 62.02 60.89 60.86 61.02 59.56 59.25 59.22 58.81 58.58 57.84 57.20 56.36 55.17 55.08 54.71 53.99 53.36 52.25 52.88 52.48 53.14 52.51 52.35 52.10 51.42 51.34 52.20 51.23 50.75 50.92 50.86 51.33 52.45 53.36 54.52 55.14 55.84 53.32 56.02 56.46 56.56 57.05
61.45 60.92 60.27 59.10 57.93 58.58 58.46 58.97 58.21 57.10 57.17 56.92 55.93 55.25 55.69 56.43 55.61 54.44 52.87 51.33 52.39 53.30 52.45 53.09 52.17 51.14 50.56 50.78 50.79 50.06 49.87 49.67 49.96 50.57 50.84 51.11 51.59 52.83 53.13 54.44 54.28 54.87 55.32 56.57
59.88 59.24 58.70 58.26 58.02 57.52 58.19 58.28 57.84 57.29 56.73 56.17 56.28 56.47 56.36 56.18 55.81 55.28 55.04 51.84 52.59 50.46 52.19 52.39 51.72 50.94 50.36 50.87 48.84 48.57 47.78 47.78 48.05 48.77 49.06 50.11 50.74 51.16 51.92 52.54 52.91 53.89 56.10 57.53
57.00 57.33 56.31 56.86 57.50 57.38 57.37 57.54 56.58 56.56 55.64 55.03 55.48 55.39 54.95 54.77 54.41 52.27 51.59 54.68 54.12 51.85 53.68 53.79 51.06 50.37 50.43 49.54 48.58 47.72 47.02 46.37 46.12 46.42 46.60 47.28 47.98 48.92 50.14 51.21 51.98 52.62 53.47 53.84
60.23 60.20 58.93 58.70 58.43 57.31 56.13 55.84 55.69 55.65 55.57 55.81 55.76 55.79 54.79 53.05 53.81 53.84 54.78 50.89 49.02 50.29 53.50 52.27 51.02 50.70 50.96 50.69 49.24 47.79 46.71 46.06 44.88 44.38 45.17 44.51 46.96 47.24 47.53 47.69 47.69 48.97 48.88 48.79
60.89 60.22 59.04 57.94 57.21 56.10 56.78 56.71 55.83 55.90 55.98 56.48 57.25 57.71 56.82 55.48 53.86 53.60 54.49 54.07 50.58 50.96 53.86 50.10 51.04 51.22 52.66 50.99 50.05 49.10 47.14 45.97 45.08 44.24 44.29 44.47 44.55 44.19 44.73 44.75 44.45 44.79 45.22 45.45
61.56 59.47 59.14 60.70 58.08 57.45 56.86 56.39 55.21 54.81 53.70 53.65 54.08 55.01 54.88 55.50 55.00 54.48 54.85 53.34 55.10 52.61 53.41 53.92 53.62 53.12 53.08 52.24 51.10 50.68 49.15 47.15 45.65 45.23 44.33 44.07 43.97 43.36 42.94 42.67 42.57 42.15 42.10 42.05
61.13 55.75 59.57 58.39 58.43 57.81 57.08 55.72 54.63 54.94 53.97 54.98 52.89 54.41 55.31 55.41 54.61 54.37 52.29 55.05 54.91 54.59 54.72 54.00 55.34 53.15 53.50 54.02 52.77 51.70 51.48 50.13 46.19 45.87 45.72 44.80 44.06 43.34 42.60 42.24 41.85 41.33 40.69 40.12
MSLP
1001.10 1002.21 1002.15 1000.63 999.48 998.34 998.33 998.62 998.95 999.08 999.52 1000.06 1000.90 1001.73 1002.31 1002.98 1003.51 1004.40 1005.19 1006.18 1006.70 1007.55 1008.42 1009.05 1009.47 1009.69 1009.86 1009.97 1010.08 1010.25 1010.28 1010.37 1010.46 1010.53 1010.42 1010.55 1010.48 1010.35 1010.29 1010.25 1010.12 1010.07 1009.81 1009.59
1001.13 1001.57 1001.71 1001.03 999.76 998.78 998.36 998.30 998.39 998.85 999.72 1000.56 1001.03 1001.77 1002.28 1002.90 1003.72 1004.84 1005.82 1006.48 1007.13 1008.09 1008.78 1009.23 1009.63 1009.89 1010.15 1010.29 1010.43 1010.49 1010.51 1010.56 1010.54 1010.45 1010.32 1010.35 1010.26 1010.21 1010.01 1009.89 1009.93 1009.83 1009.72 1009.54
1001.60 1002.73 1003.11 1002.41 1001.06 999.14 998.46 998.17 998.54 998.95 999.85 1000.66 1001.60 1002.27 1002.60 1003.23 1003.73 1004.87 1005.88 1006.62 1007.29 1008.00 1008.75 1009.33 1009.69 1009.97 1010.21 1010.50 1010.62 1010.72 1010.76 1010.66 1010.58 1010.58 1010.51 1010.40 1010.22 1010.15 1010.10 1009.97 1009.84 1009.73 1009.63 1009.52
1003.92 1004.53 1005.07 1002.59 1001.33 1000.89 999.44 998.84 998.64 999.04 999.49 1000.37 1001.41 1002.35 1002.81 1003.25 1003.70 1004.77 1005.62 1006.37 1007.20 1007.68 1008.27 1008.80 1008.99 1009.58 1009.99 1010.16 1010.41 1010.56 1010.64 1010.60 1010.54 1010.53 1010.56 1010.57 1010.51 1010.38 1010.22 1010.12 1010.01 1009.83 1009.67 1009.49
1004.71 1006.30 1006.58 1003.37 1002.31 1001.70 1000.53 999.15 998.92 998.94 999.83 1000.85 1001.70 1002.33 1002.86 1003.12 1003.54 1004.17 1005.07 1006.19 1007.01 1007.41 1007.84 1008.61 1008.93 1009.18 1009.57 1009.85 1010.02 1010.13 1010.28 1010.30 1010.24 1010.30 1010.41 1010.50 1010.45 1010.41 1010.31 1010.18 1009.93 1009.67 1009.33 1009.14
1004.71 1005.60 1005.70 1002.79 1001.23 1000.09 999.81 999.49 999.07 999.34 1000.03 1001.03 1001.98 1002.60 1002.69 1003.69 1003.81 1005.05 1005.54 1005.98 1006.78 1007.19 1007.57 1007.92 1008.59 1009.06 1009.42 1009.75 1009.89 1009.94 1010.00 1010.14 1010.20 1010.18 1010.28 1010.31 1010.25 1010.19 1010.02 1009.96 1009.79 1009.45 1009.28 1009.08
1002.98 1003.50 1002.90 1001.90 1000.20 999.75 1000.17 1000.87 1000.15 1000.25 1000.68 1001.32 1002.29 1003.14 1004.40 1004.85 1003.84 1005.32 1005.84 1006.22 1006.96 1007.52 1007.91 1008.20 1008.74 1009.17 1009.59 1009.79 1010.03 1010.15 1010.19 1010.31 1010.35 1010.29 1010.27 1010.17 1009.94 1009.79 1009.73 1009.56 1009.35 1009.23 1009.07 1008.74
1001.92 1001.44 1001.64 1001.59 1000.52 1000.45 1001.18 1000.89 1000.86 1001.17 1001.37 1002.52 1003.39 1003.48 1003.89 1004.15 1004.73 1004.93 1005.87 1006.86 1007.57 1008.02 1008.44 1008.85 1009.15 1009.46 1009.88 1010.32 1010.53 1010.56 1010.64 1010.64 1010.61 1010.46 1010.24 1009.86 1009.74 1009.49 1009.33 1009.23 1009.07 1008.78 1008.45 1007.99
1001.74 1001.58 1001.53 1001.20 1001.33 1001.53 1001.34 1001.32 1001.70 1002.06 1002.30 1002.64 1003.31 1004.19 1004.95 1007.52 1003.98 1006.63 1006.44 1007.51 1008.11 1008.64 1009.02 1009.36 1009.55 1009.88 1010.16 1010.41 1010.63 1010.71 1010.83 1010.88 1010.87 1010.69 1010.36 1010.01 1009.69 1009.30 1009.00 1008.68 1008.37 1008.03 1007.58 1007.06
1001.93 1001.33 1001.33 1001.40 1001.70 1002.23 1002.17 1001.89 1001.93 1002.38 1002.97 1003.51 1004.05 1004.95 1005.40 1005.56 1006.19 1006.58 1007.52 1008.38 1008.93 1009.30 1009.56 1009.81 1010.00 1010.10 1010.27 1010.39 1010.46 1010.57 1010.62 1010.63 1010.54 1010.33 1010.01 1009.65 1009.16 1008.71 1008.26 1007.85 1007.55 1007.25 1006.94 1006.52
1002.04 1001.79 1001.65 1001.69 1002.06 1002.28 1002.53 1002.79 1002.80 1003.19 1003.72 1004.27 1004.79 1005.41 1006.05 1006.65 1007.29 1007.90 1008.55 1009.04 1009.53 1009.97 1010.16 1010.26 1010.32 1010.42 1010.46 1010.49 1010.47 1010.47 1010.45 1010.36 1010.21 1009.88 1009.40 1008.90 1008.56 1008.12 1007.65 1007.18 1006.92 1006.77 1006.50 1006.39
1001.86 1002.31 1002.46 1002.43 1002.55 1002.70 1003.06 1003.29 1003.52 1003.91 1004.51 1005.24 1005.89 1006.45 1006.97 1007.60 1008.22 1008.79 1009.40 1009.76 1010.00 1010.23 1010.32 1010.33 1010.48 1010.46 1010.39 1010.30 1010.24 1010.21 1010.17 1009.97 1009.81 1009.62 1009.12 1008.66 1008.29 1007.64 1007.18 1006.71 1006.38 1006.30 1006.31 1006.16
1002.50 1002.99 1003.10 1003.22 1003.30 1003.30 1003.34 1003.74 1003.97 1004.51 1005.22 1005.83 1006.46 1007.07 1007.62 1008.24 1009.00 1009.50 1009.93 1010.30 1010.50 1010.62 1010.66 1010.64 1010.54 1010.58 1010.42 1010.28 1010.21 1010.08 1010.04 1009.77 1009.61 1009.52 1009.14 1008.99 1008.55 1008.06 1007.35 1006.76 1006.28 1005.77 1005.41 1005.34
1003.54 1003.81 1003.89 1003.72 1003.68 1003.59 1003.82 1004.14 1004.96 1005.54 1006.15 1006.65 1007.00 1007.69 1008.46 1009.06 1009.65 1010.19 1010.61 1010.93 1011.01 1011.07 1011.08 1011.09 1011.24 1011.32 1011.26 1011.08 1010.81 1010.48 1010.19 1009.84 1009.76 1009.52 1009.13 1008.81 1008.25 1007.83 1007.45 1006.89 1006.18 1005.54 1005.19 1005.06
1004.11 1004.14 1004.04 1003.81 1003.95 1003.96 1004.35 1004.72 1005.53 1006.25 1006.66 1007.29 1008.10 1008.81 1009.48 1010.05 1010.56 1010.95 1011.25 1011.49 1011.62 1011.76 1011.86 1012.11 1012.04 1011.88 1011.71 1011.61 1011.25 1010.81 1010.36 1010.01 1009.80 1009.63 1009.22 1008.56 1007.95 1007.41 1007.04 1006.59 1006.05 1005.55 1004.90 1004.55
1004.09 1004.26 1004.05 1004.32 1004.38 1004.71 1005.10 1005.60 1006.23 1007.24 1007.83 1008.60 1009.45 1010.27 1010.78 1011.13 1011.55 1011.81 1012.30 1012.65 1012.80 1012.89 1012.99 1012.89 1012.69 1012.46 1012.33 1012.08 1011.65 1011.04 1010.70 1010.36 1010.02 1009.49 1008.99 1008.38 1007.68 1007.02 1006.75 1006.02 1005.95 1005.66 1004.93 1004.22
1004.56 1004.33 1004.50 1004.76 1005.03 1005.40 1006.16 1006.77 1007.56 1008.41 1009.22 1010.01 1010.76 1011.47 1011.87 1012.26 1012.73 1013.14 1013.68 1013.91 1013.95 1013.86 1013.73 1013.48 1013.51 1013.35 1013.02 1012.31 1011.56 1011.11 1010.67 1010.18 1009.76 1009.19 1008.25 1007.73 1007.24 1006.74 1006.10 1005.55 1005.33 1005.06 1004.56 1003.94
1005.13 1005.10 1005.27 1005.42 1005.85 1006.47 1007.26 1008.13 1008.70 1009.60 1010.45 1011.25 1012.05 1012.50 1012.91 1013.35 1013.78 1014.04 1014.27 1014.28 1014.25 1014.05 1013.93 1013.91 1013.76 1013.43 1012.89 1012.21 1011.73 1011.40 1011.02 1010.41 1009.79 1009.12 1008.52 1008.02 1007.18 1006.45 1005.89 1005.33 1005.04 1004.56 1004.09 1003.58
1005.43 1005.96 1006.68 1007.20 1007.63 1008.14 1008.64 1009.43 1009.96 1010.87 1011.67 1012.23 1012.70 1013.13 1013.57 1013.99 1014.47 1014.74 1014.81 1014.64 1014.33 1014.24 1014.27 1014.31 1013.92 1013.51 1012.83 1012.47 1012.18 1011.74 1011.12 1010.53 1009.95 1009.32 1008.69 1008.00 1007.15 1006.29 1005.71 1005.32 1004.86 1004.45 1004.04 1003.55
1006.77 1007.49 1008.17 1008.81 1009.19 1009.41 1010.12 1010.61 1011.10 1011.77 1012.43 1012.88 1013.31 1013.70 1014.07 1014.40 1014.66 1014.72 1014.85 1014.77 1014.73 1014.89 1014.71 1014.28 1013.89 1013.39 1013.14 1012.77 1012.23 1011.58 1010.88 1010.23 1009.50 1008.93 1008.26 1007.51 1006.82 1006.22 1005.70 1005.36 1004.98 1004.61 1004.21 1003.61
1007.96 1008.57 1009.24 1009.96 1010.46 1010.78 1011.05 1011.34 1011.82 1012.40 1012.99 1013.36 1013.66 1013.85 1013.79 1013.94 1014.26 1014.55 1014.56 1014.54 1014.81 1014.91 1014.68 1014.26 1013.90 1013.59 1013.29 1012.68 1011.97 1011.27 1010.69 1010.16 1009.58 1008.92 1008.30 1007.75 1007.19 1006.58 1006.09 1005.58 1005.18 1004.54 1003.89 1003.14
1008.98 1009.55 1010.12 1010.64 1011.06 1011.46 1011.78 1012.10 1012.49 1012.85 1013.15 1013.39 1013.60 1013.73 1013.57 1013.47 1013.65 1013.80 1014.41 1014.73 1014.40 1014.75 1014.49 1013.97 1013.86 1013.89 1013.35 1012.69 1012.10 1011.45 1010.88 1010.31 1009.69 1009.05 1008.40 1007.78 1007.18 1006.58 1005.99 1005.47 1004.84 1004.11 1003.21 1002.38
1010.35 1010.73 1010.99 1011.22 1011.49 1011.63 1012.03 1012.40 1012.69 1012.97 1013.26 1013.60 1013.75 1013.79 1013.53 1013.33 1013.32 1013.41 1013.45 1013.75 1013.85 1013.91 1013.87 1013.59 1013.89 1013.67 1013.21 1012.62 1012.14 1011.62 1011.10 1010.50 1009.95 1009.36 1008.72 1008.11 1007.43 1006.75 1006.04 1005.34 1004.71 1004.12 1003.38 1002.66
1010.42 1010.79 1011.03 1011.27 1011.55 1011.78 1012.18 1012.56 1012.65 1012.96 1013.22 1013.35 1013.54 1013.57 1013.26 1012.83 1012.80 1012.97 1012.99 1013.53 1013.53 1013.33 1013.14 1013.41 1013.34 1013.11 1012.64 1012.30 1012.14 1011.72 1011.33 1010.79 1010.30 1009.70 1008.96 1008.28 1007.59 1006.95 1006.25 1005.71 1005.10 1004.36 1003.69 1002.98
1010.62 1011.02 1011.29 1011.44 1011.59 1011.75 1012.10 1012.52 1012.59 1012.70 1012.65 1012.74 1012.79 1012.75 1012.53 1012.51 1012.67 1012.86 1012.74 1012.67 1012.74 1012.96 1012.29 1012.91 1012.61 1012.46 1012.20 1012.20 1012.18 1011.95 1011.74 1011.17 1010.63 1010.05 1009.33 1008.59 1007.95 1007.35 1006.74 1006.09 1005.46 1004.83 1004.09 1003.41
1010.45 1010.70 1010.78 1011.06 1010.93 1010.78 1011.09 1011.56 1011.47 1011.58 1012.25 1012.09 1012.17 1012.24 1012.26 1012.35 1012.33 1012.47 1012.57 1012.47 1012.28 1012.24 1011.98 1011.87 1012.00 1011.87 1011.65 1011.83 1011.87 1011.72 1011.56 1011.27 1010.85 1010.28 1009.72 1009.10 1008.48 1007.87 1007.25 1006.56 1005.91 1005.19 1004.51 1003.82
1010.09 1010.33 1010.40 1010.78 1010.91 1010.85 1011.05 1011.40 1011.52 1011.36 1011.87 1011.94 1012.28 1012.15 1012.11 1012.04 1012.26 1012.37 1012.37 1012.18 1012.06 1011.90 1011.67 1011.56 1011.47 1011.25 1011.19 1011.01 1010.83 1010.81 1010.83 1010.95 1010.85 1010.56 1009.99 1009.39 1008.93 1008.34 1007.73 1007.06 1006.38 1005.69 1004.97 1004.29
Wind_Speed
19 25 25 17 16 8 4 5 6 12 10 15 10 14 11 10 11 9 8 8 9 10 8 7 6 5 5 5 5 4 2 3 5 6 3 4 6 7 7 7 8 9 7 8
4 2 11 16 18 13 8 10 8 4 8 11 8 11 11 11 10 12 10 9 11 8 7 6 6 6 5 5 5 5 4 4 5 5 6 5 4 5 5 4 5 6 7 7
1 9 5 18 21 12 9 3 3 7 14 12 8 5 9 9 9 14 9 8 10 10 8 5 5 4 4 4 4 5 5 5 5 6 6 6 6 5 5 6 5 5 5 5
5 10 10 6 12 16 21 10 8 7 5 8 11 8 7 8 11 12 9 10 7 7 9 9 8 7 4 3 4 3 3 3 4 4 5 6 6 6 6 5 5 5 5 5
5 5 15 31 6 7 24 5 5 7 12 9 8 5 7 9 14 12 13 9 6 6 6 4 1 4 5 3 3 4 4 4 3 3 4 6 6 6 5 6 6 6 6 6
4 6 4 15 25 3 7 2 11 9 9 11 8 7 6 9 12 10 9 7 4 1 6 9 9 5 5 6 6 6 4 4 5 5 5 7 8 7 6 6 7 7 7 7
9 6 9 5 15 8 4 6 9 7 5 7 7 7 7 10 10 8 7 6 1 1 4 4 6 5 5 7 7 6 6 6 6 6 6 8 9 8 7 7 8 8 8 9
6 10 1 10 11 4 5 5 9 3 5 14 12 8 5 7 8 8 5 3 3 3 5 8 7 4 3 6 7 7 8 8 8 8 8 10 10 9 9 8 10 10 10 11
6 6 3 3 4 7 9 5 3 6 6 6 9 9 11 11 14 6 7 5 5 5 5 4 5 6 2 3 4 5 6 8 9 10 11 11 11 12 10 11 10 10 10 10
6 5 9 10 7 4 5 6 6 5 3 4 7 9 2 7 10 10 8 8 8 8 7 7 6 6 1 3 3 4 7 8 9 10 10 11 11 11 11 10 10 10 9 8
3 9 8 3 4 4 5 5 3 8 7 7 6 8 9 9 8 6 6 5 5 7 7 8 7 7 8 8 8 8 9 10 10 10 12 9 8 9 10 9 10 10 9 8
4 9 6 6 5 2 2 1 2 3 6 3 4 5 6 6 6 7 7 5 5 6 7 7 8 9 9 8 8 9 9 8 9 10 10 8 10 10 12 13 15 13 14 11
7 11 8 7 6 9 4 6 3 4 4 4 5 5 5 5 9 7 8 9 8 8 8 9 10 11 10 9 11 11 10 10 9 10 9 10 9 10 11 11 15 13 13 13
6 6 5 6 5 7 4 9 7 7 5 4 3 9 11 9 9 9 9 10 11 11 12 12 10 11 13 15 12 11 11 10 9 10 8 8 9 9 9 11 11 10 11 7
5 7 7 5 4 2 3 4 8 4 2 11 11 10 11 11 10 9 9 10 11 11 11 13 14 14 14 14 14 14 13 9 8 7 9 10 10 11 10 10 10 10 10 8
4 5 7 4 3 2 4 3 4 11 11 11 12 11 10 10 9 10 12 12 12 11 12 12 12 14 13 12 13 12 10 12 10 9 9 10 11 10 11 7 7 8 10 11
7 4 6 3 5 8 11 10 10 10 9 11 10 10 9 9 9 10 10 11 11 11 11 11 10 13 13 16 17 10 11 11 14 12 11 10 10 10 11 10 9 10 10 11
7 5 11 4 11 11 12 10 10 10 10 9 6 6 7 7 8 9 9 10 8 8 7 10 14 16 16 15 13 11 10 10 10 11 10 12 11 9 9 10 10 10 10 12
5 10 14 13 12 10 10 9 10 10 7 6 6 7 7 9 8 8 9 10 9 10 12 13 18 17 14 14 15 10 10 11 11 10 10 13 13 11 9 9 10 10 11 11
12 12 11 11 10 10 9 7 9 8 7 6 6 6 6 6 7 9 7 7 9 8 13 15 15 12 13 15 19 10 11 12 13 11 11 10 10 10 9 10 8 11 12 12
10 9 9 9 8 8 8 7 7 7 6 5 6 4 4 5 5 6 7 7 10 11 13 13 11 9 10 15 14 10 10 11 11 10 10 10 10 10 10 11 11 11 11 11
9 8 8 8 8 7 6 6 6 5 4 4 4 5 5 4 4 5 6 5 6 7 6 6 9 16 13 18 9 9 10 11 10 9 9 9 9 9 9 10 11 11 11 11
8 7 5 4 5 6 5 5 5 4 3 3 3 4 4 4 3 4 5 2 5 4 6 7 9 14 17 9 9 10 10 10 10 9 9 9 9 9 9 9 10 9 10 10
7 5 5 6 7 6 5 1 3 3 3 4 3 2 4 4 3 5 4 4 5 7 3 3 5 7 10 9 9 9 10 9 10 10 9 11 8 9 8 9 9 9 9 11
6 5 4 4 4 4 5 4 5 6 7 7 6 7 4 2 3 4 5 6 1 6 7 9 5 5 8 10 10 10 9 9 9 9 9 9 9 9 9 9 9 10 9 9
7 7 7 8 6 4 6 7 6 3 2 3 2 2 3 2 3 4 5 4 6 7 7 7 4 5 7 5 6 6 7 9 10 10 10 10 10 9 9 10 10 9 9 9
10 8 6 7 6 4 1 5 3 1 4 2 4 4 2 2 3 3 3 6 7 7 6 6 5 4 4 5 3 5 6 7 7 9 9 8 8 9 10 10 9 9 9 9
Wind_Direction
140 179 224 274 271 280 251 309 308 332 335 121 135 143 154 144 116 125 120 105 123 111 104 107 92 78 71 62 70 68 24 347 353 336 303 278 292 293 286 280 283 269 270 278
75 138 314 227 248 249 271 263 256 277 75 75 107 126 144 142 144 119 124 123 104 109 129 119 115 99 72 61 54 41 39 37 25 17 9 11 351 343 343 320 295 300 297 296
91 165 29 307 324 292 282 70 3 305 102 118 103 109 140 150 161 132 125 130 140 150 138 134 136 133 117 71 38 17 2 359 11 359 355 357 349 343 348 348 341 335 315 310
45 21 291 315 34 340 297 315 284 285 124 108 125 145 160 162 140 140 142 135 147 172 150 188 185 128 134 177 173 232 276 282 300 332 341 343 341 336 344 338 329 323 317 310
126 106 307 283 327 206 260 347 310 234 105 108 105 164 146 194 152 155 136 144 172 168 159 107 219 207 194 219 266 223 258 263 293 312 312 311 312 313 317 312 320 305 290 281
128 139 220 263 249 83 45 286 345 130 126 136 140 229 239 183 102 128 137 152 158 182 193 207 188 246 159 215 237 242 271 14 358 318 298 301 302 298 300 295 289 293 321 306
187 190 211 202 310 87 250 57 30 61 102 162 126 97 121 154 153 144 129 104 86 289 294 337 53 38 359 348 326 23 9 344 325 309 305 289 275 274 277 276 274 278 284 282
234 272 129 351 354 338 78 92 30 24 27 100 117 113 143 154 123 110 87 75 41 2 19 1 6 4 2 358 14 6 345 329 318 316 309 308 312 305 293 287 286 280 274 272
348 21 166 127 48 31 16 64 96 26 34 6 105 88 59 7 63 60 62 31 7 12 5 331 329 66 37 285 323 303 293 302 302 301 296 291 285 283 282 271 261 263 260 259
329 17 27 46 64 64 339 326 91 137 94 39 103 101 330 53 53 38 26 20 358 346 344 353 345 355 355 251 267 302 302 298 295 292 292 286 280 277 276 275 274 271 274 270
277 267 276 215 230 335 99 3 63 72 66 51 41 45 41 42 36 22 9 350 10 359 338 327 337 353 348 338 330 311 299 295 289 280 279 289 289 284 283 286 275 275 281 284
247 63 2 55 32 130 359 178 311 125 126 110 66 4 21 20 16 39 36 343 308 313 324 342 333 317 310 297 292 293 294 295 302 303 290 306 312 307 296 276 279 287 284 274
26 15 10 347 317 299 169 234 201 114 48 24 28 6 20 6 58 19 13 24 358 338 327 323 322 326 333 337 324 315 299 302 315 315 313 308 301 304 299 308 313 276 257 265
9 337 307 269 273 235 222 132 84 76 30 322 286 52 36 20 14 11 6 350 344 339 334 335 356 345 345 341 332 317 306 292 299 293 276 280 285 290 297 301 299 295 292 288
296 276 262 332 216 156 171 132 131 201 347 51 52 35 29 18 4 358 347 341 341 343 343 350 338 331 330 338 329 322 319 318 313 311 302 300 295 288 286 290 292 291 295 296
265 272 256 217 202 207 158 199 63 53 45 40 39 28 14 2 348 349 12 358 351 340 334 327 324 344 341 333 317 316 318 307 297 300 289 286 283 288 290 273 287 297 303 305
299 236 263 209 265 81 71 71 62 55 48 43 27 12 1 9 2 9 3 351 337 331 333 334 345 332 325 314 310 311 312 307 298 287 284 302 295 299 297 300 304 291 281 277
279 311 28 48 67 78 83 63 75 63 55 40 19 19 27 21 7 359 355 341 343 332 340 347 332 334 319 321 330 324 315 307 305 302 308 298 295 289 287 292 286 289 301 302
227 74 66 49 69 79 71 65 67 69 63 52 42 41 25 29 17 2 354 350 346 347 352 334 335 328 324 332 334 318 308 305 300 294 291 296 299 300 303 300 296 296 295 293
81 82 79 70 51 69 89 80 86 85 69 64 57 46 35 27 15 5 2 346 8 352 337 342 331 334 338 325 320 309 301 297 296 288 282 279 287 295 298 293 302 309 300 291
103 102 97 87 84 79 73 78 88 91 83 75 72 45 5 78 45 17 9 4 4 359 348 334 349 343 329 327 327 320 325 322 322 321 322 317 311 305 302 300 295 288 287 283
125 111 107 115 104 97 95 91 91 94 86 61 41 25 354 72 44 67 87 33 12 30 345 347 0 348 340 342 326 324 327 323 317 313 309 308 310 311 309 304 296 289 289 279
79 90 87 81 113 125 111 123 125 100 79 58 27 6 343 334 60 1 360 50 344 356 303 15 13 352 348 347 339 339 335 334 331 328 323 316 309 303 305 314 317 317 314 319
130 146 138 145 143 146 148 162 100 134 157 198 144 281 300 333 345 33 356 144 205 263 305 66 38 345 336 4 351 350 344 341 342 333 325 321 326 328 325 327 322 320 320 315
154 154 166 158 181 175 168 196 215 208 202 208 199 220 237 68 326 356 354 349 245 266 335 157 124 357 5 14 6 358 350 347 343 338 337 340 340 338 333 330 326 325 322 323
186 192 194 199 243 197 187 169 240 109 0 303 327 4 1 2 65 347 5 18 360 348 359 7 3 352 352 21 4 4 1 355 354 349 350 350 347 345 343 342 336 336 332 329
208 215 183 189 211 218 287 44 345 182 185 70 345 322 292 25 87 17 18 17 6 1 360 5 357 351 326 350 349 19 23 10 8 354 349 350 351 350 351 347 346 346 344 343